Location: Rye
(30.7294°N, 96.4902°W)
Time: 17:34:11
(UTC+00:00)

Tiros 1 despin weight - Pass Details

Date: 09 December 2025
Orbit: 557 x 596 km, 48.2° (Epoch: 10 January)

Event Time Altitude Azimuth Distance (km) Brightness Sun altitude
Rises 00:31:23 0° 234° (SW) 2,780 ? -14.1°
Reaches altitude 10° 00:33:40 10° 237° (WSW) 1,876 ? -14.6°
Maximum altitude 00:37:57 68° 320° (NW) 613 ? -15.4°
Enters shadow 00:40:23 24° 39° (NE) 1,181 ? -15.9°
